Time,TemperatureF,DewpointF,PressureIn,WindDirection,WindDirectionDegrees,WindSpeedMPH,WindSpeedGustMPH,Humidity,HourlyPrecipIn,Conditions,Clouds,dailyrainin,SolarRadiationWatts/m^2,SoftwareType,DateUTC
2013-11-27 00:00:00,24.0,15.3,30.27,NNE,23,3.0,3.0,69,0.00,,CLR,0.01,0.00,VWS V14.01,2013-11-27 06:00:00,
2013-11-27 00:04:00,23.9,15.2,30.27,North,11,0.0,4.0,69,0.00,,CLR,0.00,0.00,VWS V14.01,2013-11-27 06:04:00,
2013-11-27 00:05:00,23.9,15.2,30.27,North,11,0.0,4.0,69,0.00,,CLR,0.00,0.00,VWS V14.01,2013-11-27 06:05:00,
2013-11-27 00:09:00,23.8,15.1,30.27,North,360,2.0,6.0,69,0.00,,CLR,0.00,0.00,VWS V14.01,2013-11-27 06:09:00,
2013-11-27 00:10:00,23.8,15.1,30.27,NNE,12,0.0,6.0,69,0.00,,CLR,0.00,0.00,VWS V14.01,2013-11-27 06:10:00,
2013-11-27 00:14:00,23.7,15.4,30.27,NNW,333,0.0,3.0,70,0.00,,CLR,0.00,0.00,VWS V14.01,2013-11-27 06:14:00,
2013-11-27 00:15:00,23.7,15.4,30.27,NNE,20,0.0,3.0,70,0.00,,CLR,0.00,0.00,VWS V14.01,2013-11-27 06:15:00,
2013-11-27 00:20:00,23.6,15.3,30.27,North,360,1.0,2.0,70,0.00,,CLR,0.00,0.00,VWS V14.01,2013-11-27 06:20:00,
2013-11-27 00:25:00,23.5,15.2,30.27,NNW,344,0.0,5.0,70,0.00,,CLR,0.00,0.00,VWS V14.01,2013-11-27 06:25:00,
2013-11-27 00:30:00,23.4,15.1,30.27,North,355,0.0,4.0,70,0.00,,CLR,0.00,0.00,VWS V14.01,2013-11-27 06:30:00,
2013-11-27 00:35:00,23.3,15.0,30.27,NW,315,2.0,3.0,70,0.00,,CLR,0.00,0.00,VWS V14.01,2013-11-27 06:35:00,
2013-11-27 00:40:00,23.2,14.9,30.27,NNE,15,0.0,4.0,70,0.00,,CLR,0.00,0.00,VWS V14.01,2013-11-27 06:40:00,
2013-11-27 00:45:00,23.1,14.8,30.27,NNE,32,0.0,1.0,70,0.00,,CLR,0.00,0.00,VWS V14.01,2013-11-27 06:45:00,
2013-11-27 00:50:00,23.0,14.7,30.27,North,355,0.0,4.0,70,0.00,,CLR,0.00,0.00,VWS V14.01,2013-11-27 06:50:00,
2013-11-27 00:55:00,22.9,14.6,30.27,North,355,0.0,3.0,70,0.00,,CLR,0.00,0.00,VWS V14.01,2013-11-27 06:55:00,
2013-11-27 01:00:00,22.8,14.5,30.27,NNW,342,2.0,4.0,70,0.00,,CLR,0.00,0.00,VWS V14.01,2013-11-27 07:00:00,
2013-11-27 01:05:00,22.8,14.8,30.27,NE,36,3.0,3.0,71,0.00,,CLR,0.00,0.00,VWS V14.01,2013-11-27 07:05:00,
2013-11-27 01:10:00,22.7,14.7,30.27,West,280,0.0,2.0,71,0.00,,CLR,0.00,0.00,VWS V14.01,2013-11-27 07:10:00,
2013-11-27 01:15:00,22.7,14.7,30.28,NNE,30,0.0,3.0,71,0.00,,CLR,0.00,0.00,VWS V14.01,2013-11-27 07:15:00,
2013-11-27 01:20:00,22.6,14.9,30.28,NNE,30,0.0,2.0,72,0.00,,CLR,0.00,0.00,VWS V14.01,2013-11-27 07:20:00,
2013-11-27 01:25:00,22.5,14.9,30.28,North,349,0.0,3.0,72,0.00,,CLR,0.00,0.00,VWS V14.01,2013-11-27 07:25:00,
2013-11-27 01:30:00,22.4,14.8,30.28,NW,319,0.0,2.0,72,0.00,,CLR,0.00,0.00,VWS V14.01,2013-11-27 07:30:00,
2013-11-27 01:35:00,22.3,14.7,30.28,NNW,329,0.0,1.0,72,0.00,,CLR,0.00,0.00,VWS V14.01,2013-11-27 07:35:00,
2013-11-27 01:40:00,22.2,14.6,30.28,NW,306,0.0,3.0,72,0.00,,CLR,0.00,0.00,VWS V14.01,2013-11-27 07:40:00,
2013-11-27 01:45:00,22.0,14.4,30.28,NW,306,0.0,2.0,72,0.00,,CLR,0.00,0.00,VWS V14.01,2013-11-27 07:45:00,
2013-11-27 01:50:00,21.9,14.6,30.28,NW,306,0.0,1.0,73,0.00,,CLR,0.00,0.00,VWS V14.01,2013-11-27 07:50:00,
2013-11-27 01:55:00,21.8,14.5,30.28,NW,306,0.0,0.0,73,0.00,,CLR,0.00,0.00,VWS V14.01,2013-11-27 07:55:00,
2013-11-27 02:00:00,21.7,14.4,30.28,NW,306,0.0,1.0,73,0.00,,CLR,0.00,0.00,VWS V14.01,2013-11-27 08:00:00,
2013-11-27 02:05:00,21.6,14.3,30.28,NW,305,0.0,2.0,73,0.00,,CLR,0.00,0.00,VWS V14.01,2013-11-27 08:05:00,
2013-11-27 02:10:00,21.4,14.4,30.28,NW,305,0.0,1.0,74,0.00,,CLR,0.00,0.00,VWS V14.01,2013-11-27 08:10:00,
2013-11-27 02:15:00,21.3,14.3,30.28,NW,305,0.0,0.0,74,0.00,,CLR,0.00,0.00,VWS V14.01,2013-11-27 08:15:00,
2013-11-27 02:20:00,21.2,14.2,30.28,NW,305,0.0,2.0,74,0.00,,CLR,0.00,0.00,VWS V14.01,2013-11-27 08:20:00,
2013-11-27 02:25:00,21.1,14.1,30.28,WNW,302,0.0,2.0,74,0.00,,CLR,0.00,0.00,VWS V14.01,2013-11-27 08:25:00,
2013-11-27 02:30:00,21.0,14.0,30.28,WNW,302,0.0,0.0,74,0.00,,CLR,0.00,0.00,VWS V14.01,2013-11-27 08:30:00,
2013-11-27 02:35:00,21.0,14.0,30.28,WNW,302,0.0,0.0,74,0.00,,CLR,0.00,0.00,VWS V14.01,2013-11-27 08:35:00,
2013-11-27 02:40:00,20.8,13.8,30.28,WNW,302,0.0,0.0,74,0.00,,CLR,0.00,0.00,VWS V14.01,2013-11-27 08:40:00,
2013-11-27 02:45:00,20.7,14.0,30.28,WNW,302,0.0,0.0,75,0.00,,CLR,0.00,0.00,VWS V14.01,2013-11-27 08:45:00,
2013-11-27 02:50:00,20.6,13.9,30.28,WNW,302,0.0,1.0,75,0.00,,CLR,0.00,0.00,VWS V14.01,2013-11-27 08:50:00,
2013-11-27 02:55:00,20.5,13.9,30.28,West,263,0.0,3.0,75,0.00,,CLR,0.00,0.00,VWS V14.01,2013-11-27 08:55:00,
2013-11-27 03:00:00,20.4,13.8,30.28,NNE,15,1.0,2.0,75,0.00,,CLR,0.00,0.00,VWS V14.01,2013-11-27 09:00:00,
2013-11-27 03:05:00,20.4,13.8,30.28,West,275,0.0,2.0,75,0.00,,CLR,0.00,0.00,VWS V14.01,2013-11-27 09:05:00,
2013-11-27 03:06:00,20.4,13.8,30.28,West,275,0.0,2.0,75,0.00,,CLR,0.00,0.00,VWS V14.01,2013-11-27 09:06:00,
2013-11-27 03:10:00,20.3,14.0,30.28,NNW,344,0.0,3.0,76,0.00,,CLR,0.00,0.00,VWS V14.01,2013-11-27 09:10:00,
2013-11-27 03:11:00,20.3,14.0,30.28,NNW,344,0.0,3.0,76,0.00,,CLR,0.00,0.00,VWS V14.01,2013-11-27 09:11:00,
2013-11-27 03:15:00,20.3,14.0,30.28,NNW,345,0.0,2.0,76,0.00,,CLR,0.00,0.00,VWS V14.01,2013-11-27 09:15:00,
2013-11-27 03:16:00,20.3,14.0,30.28,NNW,345,0.0,2.0,76,0.00,,CLR,0.00,0.00,VWS V14.01,2013-11-27 09:16:00,
2013-11-27 03:20:00,20.2,13.9,30.28,NNW,345,0.0,1.0,76,0.00,,CLR,0.00,0.00,VWS V14.01,2013-11-27 09:20:00,
2013-11-27 03:21:00,20.2,13.9,30.28,NNW,345,0.0,1.0,76,0.00,,CLR,0.00,0.00,VWS V14.01,2013-11-27 09:21:00,
2013-11-27 03:25:00,20.2,13.6,30.28,NNE,23,0.0,4.0,75,0.00,,CLR,0.00,0.00,VWS V14.01,2013-11-27 09:25:00,
2013-11-27 03:26:00,20.2,13.6,30.28,NNE,23,0.0,4.0,75,0.00,,CLR,0.00,0.00,VWS V14.01,2013-11-27 09:26:00,
2013-11-27 03:30:00,20.2,13.6,30.28,North,5,0.0,3.0,75,0.00,,CLR,0.00,0.00,VWS V14.01,2013-11-27 09:30:00,
2013-11-27 03:31:00,20.2,13.6,30.28,North,5,0.0,3.0,75,0.00,,CLR,0.00,0.00,VWS V14.01,2013-11-27 09:31:00,
2013-11-27 03:35:00,20.0,13.7,30.28,North,5,0.0,1.0,76,0.00,,CLR,0.00,0.00,VWS V14.01,2013-11-27 09:35:00,
2013-11-27 03:36:00,20.0,13.7,30.28,North,5,0.0,1.0,76,0.00,,CLR,0.00,0.00,VWS V14.01,2013-11-27 09:36:00,
2013-11-27 03:40:00,20.0,13.7,30.28,North,5,0.0,0.0,76,0.00,,CLR,0.00,0.00,VWS V14.01,2013-11-27 09:40:00,
2013-11-27 03:41:00,20.0,13.7,30.28,North,5,0.0,0.0,76,0.00,,CLR,0.00,0.00,VWS V14.01,2013-11-27 09:41:00,
2013-11-27 03:45:00,19.9,13.6,30.28,North,5,0.0,0.0,76,0.00,,CLR,0.00,0.00,VWS V14.01,2013-11-27 09:45:00,
2013-11-27 03:46:00,19.9,13.6,30.28,North,5,0.0,0.0,76,0.00,,CLR,0.00,0.00,VWS V14.01,2013-11-27 09:46:00,
2013-11-27 03:50:00,19.9,13.6,30.28,North,5,0.0,1.0,76,0.00,,CLR,0.00,0.00,VWS V14.01,2013-11-27 09:50:00,
2013-11-27 03:51:00,19.9,13.6,30.28,North,5,2.0,2.0,76,0.00,,CLR,0.00,0.00,VWS V14.01,2013-11-27 09:51:00,
2013-11-27 03:55:00,19.8,13.5,30.28,North,5,0.0,3.0,76,0.00,,CLR,0.00,0.00,VWS V14.01,2013-11-27 09:55:00,
2013-11-27 03:56:00,19.8,13.5,30.28,North,5,0.0,0.0,76,0.00,,CLR,0.00,0.00,VWS V14.01,2013-11-27 09:56:00,
2013-11-27 04:00:00,19.7,13.4,30.28,North,5,0.0,3.0,76,0.00,,CLR,0.00,0.00,VWS V14.01,2013-11-27 10:00:00,
2013-11-27 04:01:00,19.7,13.4,30.28,North,5,0.0,0.0,76,0.00,,CLR,0.00,0.00,VWS V14.01,2013-11-27 10:01:00,
2013-11-27 04:05:00,19.7,13.4,30.28,North,5,0.0,0.0,76,0.00,,CLR,0.00,0.00,VWS V14.01,2013-11-27 10:05:00,
2013-11-27 04:06:00,19.7,13.4,30.28,North,5,0.0,0.0,76,0.00,,CLR,0.00,0.00,VWS V14.01,2013-11-27 10:06:00,
2013-11-27 04:10:00,19.6,13.3,30.28,North,5,0.0,0.0,76,0.00,,CLR,0.00,0.00,VWS V14.01,2013-11-27 10:10:00,
2013-11-27 04:11:00,19.6,13.3,30.28,North,5,0.0,0.0,76,0.00,,CLR,0.00,0.00,VWS V14.01,2013-11-27 10:11:00,
2013-11-27 04:15:00,19.5,13.2,30.28,North,5,0.0,2.0,76,0.00,,CLR,0.00,0.00,VWS V14.01,2013-11-27 10:15:00,
2013-11-27 04:16:00,19.5,13.2,30.28,North,5,0.0,0.0,76,0.00,,CLR,0.00,0.00,VWS V14.01,2013-11-27 10:16:00,
2013-11-27 04:20:00,19.4,13.1,30.28,North,5,0.0,0.0,76,0.00,,CLR,0.00,0.00,VWS V14.01,2013-11-27 10:20:00,
2013-11-27 04:21:00,19.4,13.1,30.28,North,5,0.0,0.0,76,0.00,,CLR,0.00,0.00,VWS V14.01,2013-11-27 10:21:00,
2013-11-27 04:25:00,19.4,13.1,30.28,North,5,0.0,0.0,76,0.00,,CLR,0.00,0.00,VWS V14.01,2013-11-27 10:25:00,
2013-11-27 04:26:00,19.4,13.1,30.28,North,5,0.0,0.0,76,0.00,,CLR,0.00,0.00,VWS V14.01,2013-11-27 10:26:00,
2013-11-27 04:30:00,19.3,13.0,30.29,North,5,0.0,0.0,76,0.00,,CLR,0.00,0.00,VWS V14.01,2013-11-27 10:30:00,
2013-11-27 04:31:00,19.3,13.0,30.29,North,5,0.0,0.0,76,0.00,,CLR,0.00,0.00,VWS V14.01,2013-11-27 10:31:00,
2013-11-27 04:35:00,19.2,12.9,30.29,NW,323,1.0,2.0,76,0.00,,CLR,0.00,0.00,VWS V14.01,2013-11-27 10:35:00,
2013-11-27 04:36:00,19.2,12.9,30.29,NW,323,0.0,1.0,76,0.00,,CLR,0.00,0.00,VWS V14.01,2013-11-27 10:36:00,
2013-11-27 04:40:00,19.1,12.8,30.29,NW,323,0.0,1.0,76,0.00,,CLR,0.00,0.00,VWS V14.01,2013-11-27 10:40:00,
2013-11-27 04:41:00,19.1,12.8,30.29,NW,323,0.0,0.0,76,0.00,,CLR,0.00,0.00,VWS V14.01,2013-11-27 10:41:00,
2013-11-27 04:45:00,19.1,12.8,30.29,NW,323,0.0,0.0,76,0.00,,CLR,0.00,0.00,VWS V14.01,2013-11-27 10:45:00,
2013-11-27 04:46:00,19.1,12.8,30.29,NW,323,0.0,0.0,76,0.00,,CLR,0.00,0.00,VWS V14.01,2013-11-27 10:46:00,
2013-11-27 04:50:00,19.0,12.7,30.29,WNW,282,0.0,2.0,76,0.00,,CLR,0.00,0.00,VWS V14.01,2013-11-27 10:50:00,
2013-11-27 04:51:00,19.0,12.7,30.29,WNW,282,0.0,0.0,76,0.00,,CLR,0.00,0.00,VWS V14.01,2013-11-27 10:51:00,
2013-11-27 04:55:00,18.9,12.6,30.29,WNW,282,0.0,0.0,76,0.00,,CLR,0.00,0.00,VWS V14.01,2013-11-27 10:55:00,
2013-11-27 04:56:00,18.9,12.6,30.29,WNW,282,0.0,0.0,76,0.00,,CLR,0.00,0.00,VWS V14.01,2013-11-27 10:56:00,
2013-11-27 05:00:00,18.9,12.6,30.29,WNW,288,0.0,3.0,76,0.00,,CLR,0.00,0.00,VWS V14.01,2013-11-27 11:00:00,
2013-11-27 05:01:00,18.9,12.6,30.29,WNW,288,1.0,1.0,76,0.00,,CLR,0.00,0.00,VWS V14.01,2013-11-27 11:01:00,
2013-11-27 05:05:00,18.8,12.8,30.29,WNW,288,1.0,1.0,77,0.00,,CLR,0.00,0.00,VWS V14.01,2013-11-27 11:05:00,
2013-11-27 05:06:00,18.8,12.8,30.29,WNW,288,0.0,2.0,77,0.00,,CLR,0.00,0.00,VWS V14.01,2013-11-27 11:06:00,
2013-11-27 05:10:00,18.8,12.8,30.29,WNW,288,0.0,2.0,77,0.00,,CLR,0.00,0.00,VWS V14.01,2013-11-27 11:10:00,
2013-11-27 05:11:00,18.8,12.8,30.29,WNW,288,0.0,0.0,77,0.00,,CLR,0.00,0.00,VWS V14.01,2013-11-27 11:11:00,
2013-11-27 05:15:00,18.8,12.5,30.29,WNW,288,0.0,1.0,76,0.00,,CLR,0.00,0.00,VWS V14.01,2013-11-27 11:15:00,
2013-11-27 05:16:00,18.7,12.7,30.29,WNW,288,0.0,0.0,77,0.00,,CLR,0.00,0.00,VWS V14.01,2013-11-27 11:16:00,
2013-11-27 05:20:00,18.7,12.4,30.29,WNW,288,0.0,0.0,76,0.00,,CLR,0.00,0.00,VWS V14.01,2013-11-27 11:20:00,
2013-11-27 05:21:00,18.6,12.6,30.29,WNW,288,0.0,0.0,77,0.00,,CLR,0.00,0.00,VWS V14.01,2013-11-27 11:21:00,
2013-11-27 05:25:00,18.6,12.3,30.29,WNW,288,0.0,1.0,76,0.00,,CLR,0.00,0.00,VWS V14.01,2013-11-27 11:25:00,
2013-11-27 05:26:00,18.6,12.3,30.29,WNW,288,0.0,0.0,76,0.00,,CLR,0.00,0.00,VWS V14.01,2013-11-27 11:26:00,
2013-11-27 05:30:00,18.6,12.3,30.30,WNW,288,0.0,1.0,76,0.00,,CLR,0.00,0.00,VWS V14.01,2013-11-27 11:30:00,
2013-11-27 05:31:00,18.6,12.3,30.30,WNW,288,0.0,0.0,76,0.00,,CLR,0.00,0.00,VWS V14.01,2013-11-27 11:31:00,
2013-11-27 05:35:00,18.5,12.2,30.30,WNW,288,0.0,1.0,76,0.00,,CLR,0.00,0.00,VWS V14.01,2013-11-27 11:35:00,
2013-11-27 05:36:00,18.5,12.2,30.30,WNW,288,0.0,0.0,76,0.00,,CLR,0.00,0.00,VWS V14.01,2013-11-27 11:36:00,
2013-11-27 05:40:00,18.5,12.2,30.30,NNW,330,0.0,5.0,76,0.00,,CLR,0.00,0.00,VWS V14.01,2013-11-27 11:40:00,
2013-11-27 05:41:00,18.5,12.2,30.30,NNW,330,0.0,0.0,76,0.00,,CLR,0.00,0.00,VWS V14.01,2013-11-27 11:41:00,
2013-11-27 05:45:00,18.4,12.1,30.30,NNW,330,0.0,1.0,76,0.00,,CLR,0.00,0.00,VWS V14.01,2013-11-27 11:45:00,
2013-11-27 05:46:00,18.4,12.1,30.30,West,279,0.0,3.0,76,0.00,,CLR,0.00,0.00,VWS V14.01,2013-11-27 11:46:00,
2013-11-27 05:50:00,18.4,12.4,30.30,West,279,0.0,3.0,77,0.00,,CLR,0.00,0.00,VWS V14.01,2013-11-27 11:50:00,
2013-11-27 05:51:00,18.4,12.1,30.30,West,279,0.0,0.0,76,0.00,,CLR,0.00,0.00,VWS V14.01,2013-11-27 11:51:00,
2013-11-27 05:55:00,18.4,12.4,30.30,West,279,0.0,0.0,77,0.00,,CLR,0.00,0.00,VWS V14.01,2013-11-27 11:55:00,
2013-11-27 05:57:00,18.3,12.3,30.30,West,279,0.0,0.0,77,0.00,,CLR,0.00,0.00,VWS V14.01,2013-11-27 11:57:00,
2013-11-27 06:00:00,18.3,12.3,30.30,West,279,0.0,0.0,77,0.00,,CLR,0.00,0.00,VWS V14.01,2013-11-27 12:00:00,
2013-11-27 06:02:00,18.3,12.3,30.30,West,279,0.0,0.0,77,0.00,,CLR,0.00,0.00,VWS V14.01,2013-11-27 12:02:00,
2013-11-27 06:05:00,18.3,12.3,30.30,West,279,0.0,0.0,77,0.00,,CLR,0.00,0.00,VWS V14.01,2013-11-27 12:05:00,
2013-11-27 06:07:00,18.2,12.2,30.30,West,279,0.0,0.0,77,0.00,,CLR,0.00,0.00,VWS V14.01,2013-11-27 12:07:00,
2013-11-27 06:10:00,18.2,12.2,30.30,West,279,0.0,0.0,77,0.00,,CLR,0.00,0.00,VWS V14.01,2013-11-27 12:10:00,
2013-11-27 06:12:00,18.2,12.2,30.30,West,279,0.0,0.0,77,0.00,,CLR,0.00,0.00,VWS V14.01,2013-11-27 12:12:00,
2013-11-27 06:15:00,18.2,12.2,30.31,West,279,0.0,0.0,77,0.00,,CLR,0.00,0.00,VWS V14.01,2013-11-27 12:15:00,
2013-11-27 06:17:00,18.2,12.2,30.31,West,279,0.0,0.0,77,0.00,,CLR,0.00,0.00,VWS V14.01,2013-11-27 12:17:00,
2013-11-27 06:20:00,18.1,12.1,30.31,West,279,0.0,0.0,77,0.00,,CLR,0.00,0.00,VWS V14.01,2013-11-27 12:20:00,
2013-11-27 06:22:00,18.1,12.1,30.31,West,279,0.0,0.0,77,0.00,,CLR,0.00,0.00,VWS V14.01,2013-11-27 12:22:00,
2013-11-27 06:25:00,18.0,12.0,30.31,West,279,0.0,0.0,77,0.00,,CLR,0.00,0.00,VWS V14.01,2013-11-27 12:25:00,
2013-11-27 06:27:00,18.0,12.0,30.31,West,279,0.0,0.0,77,0.00,,CLR,0.00,0.00,VWS V14.01,2013-11-27 12:27:00,
2013-11-27 06:30:00,18.0,12.0,30.31,West,279,0.0,0.0,77,0.00,,CLR,0.00,0.00,VWS V14.01,2013-11-27 12:30:00,
2013-11-27 06:32:00,17.9,11.9,30.31,West,279,0.0,0.0,77,0.00,,CLR,0.00,0.00,VWS V14.01,2013-11-27 12:32:00,
2013-11-27 06:35:00,17.9,11.9,30.31,West,279,0.0,0.0,77,0.00,,CLR,0.00,0.00,VWS V14.01,2013-11-27 12:35:00,
2013-11-27 06:37:00,17.8,12.1,30.31,West,279,0.0,0.0,78,0.00,,CLR,0.00,0.00,VWS V14.01,2013-11-27 12:37:00,
2013-11-27 06:40:00,17.7,12.0,30.31,West,279,0.0,0.0,78,0.00,,CLR,0.00,0.00,VWS V14.01,2013-11-27 12:40:00,
2013-11-27 06:42:00,17.7,12.0,30.31,West,279,0.0,0.0,78,0.00,,CLR,0.00,0.00,VWS V14.01,2013-11-27 12:42:00,
2013-11-27 06:45:00,17.6,11.9,30.32,WNW,296,0.0,1.0,78,0.00,,CLR,0.00,0.00,VWS V14.01,2013-11-27 12:45:00,
2013-11-27 06:47:00,17.6,11.9,30.32,WNW,296,0.0,0.0,78,0.00,,CLR,0.00,0.00,VWS V14.01,2013-11-27 12:47:00,
2013-11-27 06:50:00,17.5,11.8,30.32,WNW,296,0.0,0.0,78,0.00,,CLR,0.00,0.00,VWS V14.01,2013-11-27 12:50:00,
2013-11-27 06:52:00,17.5,11.8,30.32,WNW,296,0.0,0.0,78,0.00,,CLR,0.00,0.00,VWS V14.01,2013-11-27 12:52:00,
2013-11-27 06:55:00,17.4,11.7,30.32,WNW,296,0.0,2.0,78,0.00,,CLR,0.00,0.00,VWS V14.01,2013-11-27 12:55:00,
2013-11-27 06:57:00,17.4,11.7,30.32,WNW,296,0.0,0.0,78,0.00,,CLR,0.00,0.00,VWS V14.01,2013-11-27 12:57:00,
2013-11-27 07:00:00,17.3,11.6,30.32,WNW,296,0.0,0.0,78,0.00,,CLR,0.00,0.00,VWS V14.01,2013-11-27 13:00:00,
2013-11-27 07:02:00,17.3,11.6,30.32,WNW,296,0.0,0.0,78,0.00,,CLR,0.00,0.00,VWS V14.01,2013-11-27 13:02:00,
2013-11-27 07:05:00,17.3,11.6,30.32,WNW,296,0.0,0.0,78,0.00,,CLR,0.00,0.00,VWS V14.01,2013-11-27 13:05:00,
2013-11-27 07:07:00,17.3,11.9,30.32,WNW,296,0.0,0.0,79,0.00,,CLR,0.00,0.00,VWS V14.01,2013-11-27 13:07:00,
2013-11-27 07:10:00,17.2,11.8,30.32,WNW,296,0.0,0.0,79,0.00,,CLR,0.00,5.00,VWS V14.01,2013-11-27 13:10:00,
2013-11-27 07:12:00,17.2,11.8,30.32,WNW,296,0.0,1.0,79,0.00,,CLR,0.00,7.00,VWS V14.01,2013-11-27 13:12:00,
2013-11-27 07:15:00,17.1,11.7,30.33,WNW,296,0.0,1.0,79,0.00,,CLR,0.00,7.00,VWS V14.01,2013-11-27 13:15:00,
2013-11-27 07:17:00,17.1,11.7,30.33,WNW,296,1.0,1.0,79,0.00,,CLR,0.00,9.00,VWS V14.01,2013-11-27 13:17:00,
2013-11-27 07:20:00,17.1,11.7,30.33,WNW,296,0.0,1.0,79,0.00,,CLR,0.00,9.00,VWS V14.01,2013-11-27 13:20:00,
2013-11-27 07:22:00,17.1,11.7,30.33,WNW,296,0.0,0.0,79,0.00,,CLR,0.00,11.00,VWS V14.01,2013-11-27 13:22:00,
2013-11-27 07:25:00,17.1,12.0,30.33,WNW,296,0.0,0.0,80,0.00,,CLR,0.00,11.00,VWS V14.01,2013-11-27 13:25:00,
2013-11-27 07:27:00,17.1,12.0,30.33,WNW,296,0.0,0.0,80,0.00,,CLR,0.00,12.00,VWS V14.01,2013-11-27 13:27:00,
2013-11-27 07:30:00,17.0,11.9,30.34,WNW,296,2.0,2.0,80,0.00,,CLR,0.00,12.00,VWS V14.01,2013-11-27 13:30:00,
2013-11-27 07:32:00,17.0,11.9,30.34,WNW,296,0.0,2.0,80,0.00,,CLR,0.00,14.00,VWS V14.01,2013-11-27 13:32:00,
2013-11-27 07:35:00,17.0,11.9,30.34,WNW,296,0.0,2.0,80,0.00,,CLR,0.00,14.00,VWS V14.01,2013-11-27 13:35:00,
2013-11-27 07:37:00,17.0,11.9,30.34,WNW,296,1.0,2.0,80,0.00,,CLR,0.00,14.00,VWS V14.01,2013-11-27 13:37:00,
2013-11-27 07:40:00,17.1,12.0,30.34,WNW,296,0.0,2.0,80,0.00,,CLR,0.00,16.00,VWS V14.01,2013-11-27 13:40:00,
2013-11-27 07:42:00,17.1,12.0,30.34,WNW,296,0.0,2.0,80,0.00,,CLR,0.00,16.00,VWS V14.01,2013-11-27 13:42:00,
2013-11-27 07:45:00,17.1,12.0,30.34,WNW,296,0.0,2.0,80,0.00,,CLR,0.00,19.00,VWS V14.01,2013-11-27 13:45:00,
2013-11-27 07:47:00,17.1,12.3,30.34,WNW,296,0.0,2.0,81,0.00,,CLR,0.00,19.00,VWS V14.01,2013-11-27 13:47:00,
2013-11-27 07:50:00,17.2,12.4,30.34,NW,305,0.0,3.0,81,0.00,,CLR,0.00,25.00,VWS V14.01,2013-11-27 13:50:00,
2013-11-27 07:52:00,17.2,12.4,30.34,NW,305,0.0,0.0,81,0.00,,CLR,0.00,21.00,VWS V14.01,2013-11-27 13:52:00,
2013-11-27 07:55:00,17.3,12.5,30.34,NW,305,0.0,0.0,81,0.00,,CLR,0.00,26.00,VWS V14.01,2013-11-27 13:55:00,
2013-11-27 07:58:00,17.3,12.5,30.34,NW,305,0.0,1.0,81,0.00,,CLR,0.00,25.00,VWS V14.01,2013-11-27 13:58:00,
2013-11-27 08:00:00,17.4,12.6,30.35,NW,306,2.0,2.0,81,0.00,,CLR,0.00,23.00,VWS V14.01,2013-11-27 14:00:00,
2013-11-27 08:03:00,17.5,12.7,30.35,NW,306,0.0,2.0,81,0.00,,CLR,0.00,23.00,VWS V14.01,2013-11-27 14:03:00,
2013-11-27 08:05:00,17.6,12.8,30.35,NW,325,0.0,2.0,81,0.00,,CLR,0.00,26.00,VWS V14.01,2013-11-27 14:05:00,
2013-11-27 08:08:00,17.7,12.6,30.35,NW,325,0.0,1.0,80,0.00,,CLR,0.00,30.00,VWS V14.01,2013-11-27 14:08:00,
2013-11-27 08:10:00,17.8,12.7,30.35,NW,325,0.0,2.0,80,0.00,,CLR,0.00,46.00,VWS V14.01,2013-11-27 14:10:00,
2013-11-27 08:13:00,17.9,12.8,30.35,NW,325,0.0,1.0,80,0.00,,CLR,0.00,39.00,VWS V14.01,2013-11-27 14:13:00,
2013-11-27 08:15:00,18.1,13.0,30.35,NW,325,0.0,1.0,80,0.00,,CLR,0.00,30.00,VWS V14.01,2013-11-27 14:15:00,
2013-11-27 08:18:00,18.2,12.8,30.35,NW,325,0.0,1.0,79,0.00,,CLR,0.00,28.00,VWS V14.01,2013-11-27 14:18:00,
2013-11-27 08:20:00,18.3,13.2,30.35,NW,325,0.0,1.0,80,0.00,,CLR,0.00,44.00,VWS V14.01,2013-11-27 14:20:00,
2013-11-27 08:23:00,18.9,13.5,30.35,North,11,2.0,2.0,79,0.00,,CLR,0.00,65.00,VWS V14.01,2013-11-27 14:23:00,
2013-11-27 08:25:00,19.7,13.7,30.35,West,276,1.0,4.0,77,0.00,,CLR,0.00,109.00,VWS V14.01,2013-11-27 14:25:00,
2013-11-27 08:28:00,20.2,13.9,30.35,West,276,0.0,1.0,76,0.00,,CLR,0.00,171.00,VWS V14.01,2013-11-27 14:28:00,
2013-11-27 08:30:00,20.7,14.4,30.36,West,276,0.0,1.0,76,0.00,,CLR,0.00,190.00,VWS V14.01,2013-11-27 14:30:00,
2013-11-27 08:33:00,20.9,14.2,30.36,NNW,345,0.0,3.0,75,0.00,,CLR,0.00,227.00,VWS V14.01,2013-11-27 14:33:00,
2013-11-27 08:35:00,21.1,14.1,30.36,West,275,0.0,3.0,74,0.00,,CLR,0.00,232.00,VWS V14.01,2013-11-27 14:35:00,
2013-11-27 08:38:00,21.2,13.9,30.36,West,275,0.0,1.0,73,0.00,,CLR,0.00,232.00,VWS V14.01,2013-11-27 14:38:00,
2013-11-27 08:40:00,21.6,14.3,30.36,NW,314,0.0,3.0,73,0.00,,CLR,0.00,234.00,VWS V14.01,2013-11-27 14:40:00,
2013-11-27 08:43:00,21.6,14.0,30.36,NW,324,3.0,3.0,72,0.00,,CLR,0.00,239.00,VWS V14.01,2013-11-27 14:43:00,
2013-11-27 08:45:00,21.7,14.7,30.36,NNW,343,0.0,3.0,74,0.00,,CLR,0.00,244.00,VWS V14.01,2013-11-27 14:45:00,
2013-11-27 08:48:00,22.0,14.4,30.36,NNW,344,0.0,1.0,72,0.00,,CLR,0.00,244.00,VWS V14.01,2013-11-27 14:48:00,
2013-11-27 08:50:00,22.1,14.1,30.36,North,355,1.0,1.0,71,0.00,,CLR,0.00,257.00,VWS V14.01,2013-11-27 14:50:00,
2013-11-27 08:53:00,22.1,13.8,30.36,NNW,345,0.0,4.0,70,0.00,,CLR,0.00,260.00,VWS V14.01,2013-11-27 14:53:00,
2013-11-27 08:55:00,22.4,14.1,30.36,NW,317,0.0,4.0,70,0.00,,CLR,0.00,265.00,VWS V14.01,2013-11-27 14:55:00,
2013-11-27 08:58:00,22.6,14.9,30.36,WNW,292,4.0,6.0,72,0.00,,CLR,0.00,272.00,VWS V14.01,2013-11-27 14:58:00,
2013-11-27 09:00:00,22.6,14.6,30.36,NNW,348,1.0,6.0,71,0.00,,CLR,0.00,278.00,VWS V14.01,2013-11-27 15:00:00,
2013-11-27 09:03:00,22.9,14.9,30.36,North,355,0.0,3.0,71,0.00,,CLR,0.00,281.00,VWS V14.01,2013-11-27 15:03:00,
2013-11-27 09:05:00,22.9,14.3,30.36,WNW,297,0.0,3.0,69,0.00,,CLR,0.00,281.00,VWS V14.01,2013-11-27 15:05:00,
2013-11-27 09:08:00,22.9,14.3,30.36,North,360,0.0,4.0,69,0.00,,CLR,0.00,295.00,VWS V14.01,2013-11-27 15:08:00,
2013-11-27 09:10:00,22.9,14.3,30.36,NNE,15,1.0,7.0,69,0.00,,CLR,0.00,299.00,VWS V14.01,2013-11-27 15:10:00,
2013-11-27 09:13:00,23.0,14.7,30.36,NNW,346,1.0,4.0,70,0.00,,CLR,0.00,294.00,VWS V14.01,2013-11-27 15:13:00,
2013-11-27 09:15:00,23.0,14.0,30.37,NW,310,0.0,4.0,68,0.00,,CLR,0.00,297.00,VWS V14.01,2013-11-27 15:15:00,
2013-11-27 09:18:00,23.1,14.5,30.37,NNE,16,1.0,3.0,69,0.00,,CLR,0.00,301.00,VWS V14.01,2013-11-27 15:18:00,
2013-11-27 09:20:00,23.4,14.8,30.37,NNE,15,0.0,3.0,69,0.00,,CLR,0.00,323.00,VWS V14.01,2013-11-27 15:20:00,
2013-11-27 09:23:00,23.5,14.5,30.37,NW,319,0.0,4.0,68,0.00,,CLR,0.00,327.00,VWS V14.01,2013-11-27 15:23:00,
2013-11-27 09:25:00,23.6,14.6,30.37,NW,306,3.0,6.0,68,0.00,,CLR,0.00,334.00,VWS V14.01,2013-11-27 15:25:00,
2013-11-27 09:28:00,23.5,14.5,30.37,NW,315,1.0,4.0,68,0.00,,CLR,0.00,341.00,VWS V14.01,2013-11-27 15:28:00,
2013-11-27 09:30:00,23.6,14.9,30.37,NNW,343,0.0,4.0,69,0.00,,CLR,0.00,345.00,VWS V14.01,2013-11-27 15:30:00,
2013-11-27 09:33:00,24.1,15.4,30.37,North,5,3.0,4.0,69,0.00,,CLR,0.00,352.00,VWS V14.01,2013-11-27 15:33:00,
2013-11-27 09:35:00,24.5,15.5,30.37,North,5,1.0,4.0,68,0.00,,CLR,0.00,355.00,VWS V14.01,2013-11-27 15:35:00,
2013-11-27 09:38:00,24.5,15.5,30.37,West,275,3.0,3.0,68,0.00,,CLR,0.00,362.00,VWS V14.01,2013-11-27 15:38:00,
2013-11-27 09:40:00,24.4,15.0,30.37,NW,308,1.0,3.0,67,0.00,,CLR,0.00,364.00,VWS V14.01,2013-11-27 15:40:00,
2013-11-27 09:43:00,24.3,14.6,30.37,SW,226,2.0,3.0,66,0.00,,CLR,0.00,369.00,VWS V14.01,2013-11-27 15:43:00,
2013-11-27 09:45:00,24.3,14.6,30.37,West,263,2.0,9.0,66,0.00,,CLR,0.00,378.00,VWS V14.01,2013-11-27 15:45:00,
2013-11-27 09:48:00,24.3,15.6,30.37,WNW,296,1.0,3.0,69,0.00,,CLR,0.00,380.00,VWS V14.01,2013-11-27 15:48:00,
2013-11-27 09:50:00,24.9,15.5,30.37,NW,307,1.0,3.0,67,0.00,,CLR,0.00,383.00,VWS V14.01,2013-11-27 15:50:00,
2013-11-27 09:53:00,25.4,15.6,30.37,NNE,24,3.0,4.0,66,0.00,,CLR,0.00,390.00,VWS V14.01,2013-11-27 15:53:00,
2013-11-27 09:55:00,25.4,15.3,30.37,NNE,16,0.0,4.0,65,0.00,,CLR,0.00,394.00,VWS V14.01,2013-11-27 15:55:00,
2013-11-27 09:58:00,25.7,15.2,30.37,NW,318,1.0,4.0,64,0.00,,CLR,0.00,399.00,VWS V14.01,2013-11-27 15:58:00,
2013-11-27 10:00:00,25.9,15.4,30.37,WNW,292,1.0,4.0,64,0.00,,CLR,0.00,401.00,VWS V14.01,2013-11-27 16:00:00,
2013-11-27 10:03:00,26.1,15.2,30.37,West,271,3.0,3.0,63,0.00,,CLR,0.00,408.00,VWS V14.01,2013-11-27 16:03:00,
2013-11-27 10:05:00,26.2,15.3,30.37,NNW,348,0.0,4.0,63,0.00,,CLR,0.00,411.00,VWS V14.01,2013-11-27 16:05:00,
2013-11-27 10:08:00,26.5,15.3,30.37,NE,54,3.0,4.0,62,0.00,,CLR,0.00,418.00,VWS V14.01,2013-11-27 16:08:00,
2013-11-27 10:10:00,26.1,14.1,30.37,NNW,339,1.0,5.0,60,0.00,,CLR,0.00,420.00,VWS V14.01,2013-11-27 16:10:00,
2013-11-27 10:13:00,26.3,15.4,30.37,North,355,1.0,3.0,63,0.00,,CLR,0.00,425.00,VWS V14.01,2013-11-27 16:13:00,
2013-11-27 10:15:00,26.4,15.2,30.37,North,11,0.0,3.0,62,0.00,,CLR,0.00,425.00,VWS V14.01,2013-11-27 16:15:00,
2013-11-27 10:18:00,26.2,14.2,30.37,NW,319,4.0,7.0,60,0.00,,CLR,0.00,436.00,VWS V14.01,2013-11-27 16:18:00,
2013-11-27 10:20:00,26.2,15.0,30.37,WNW,300,0.0,7.0,62,0.00,,CLR,0.00,434.00,VWS V14.01,2013-11-27 16:20:00,
2013-11-27 10:24:00,26.6,15.4,30.37,West,262,0.0,5.0,62,0.00,,CLR,0.00,439.00,VWS V14.01,2013-11-27 16:24:00,
2013-11-27 10:25:00,26.8,15.2,30.37,WNW,291,3.0,6.0,61,0.00,,CLR,0.00,441.00,VWS V14.01,2013-11-27 16:25:00,
2013-11-27 10:29:00,27.2,15.6,30.37,NW,317,0.0,5.0,61,0.00,,CLR,0.00,445.00,VWS V14.01,2013-11-27 16:29:00,
2013-11-27 10:30:00,27.5,15.8,30.37,West,275,3.0,5.0,61,0.00,,CLR,0.00,450.00,VWS V14.01,2013-11-27 16:30:00,
2013-11-27 10:34:00,26.9,14.9,30.37,NW,307,1.0,8.0,60,0.00,,CLR,0.00,450.00,VWS V14.01,2013-11-27 16:34:00,
2013-11-27 10:35:00,27.0,15.4,30.37,North,360,1.0,8.0,61,0.00,,CLR,0.00,454.00,VWS V14.01,2013-11-27 16:35:00,
2013-11-27 10:39:00,27.5,14.3,30.37,NNW,329,3.0,7.0,57,0.00,,CLR,0.00,459.00,VWS V14.01,2013-11-27 16:39:00,
2013-11-27 10:40:00,27.1,13.5,30.37,ENE,65,3.0,9.0,56,0.00,,CLR,0.00,461.00,VWS V14.01,2013-11-27 16:40:00,
2013-11-27 10:44:00,27.2,14.8,30.37,WNW,301,0.0,3.0,59,0.00,,CLR,0.00,466.00,VWS V14.01,2013-11-27 16:44:00,
2013-11-27 10:45:00,27.9,15.4,30.36,NW,318,2.0,3.0,59,0.00,,CLR,0.00,468.00,VWS V14.01,2013-11-27 16:45:00,
2013-11-27 10:49:00,28.2,15.7,30.36,WNW,293,0.0,2.0,59,0.00,,CLR,0.00,471.00,VWS V14.01,2013-11-27 16:49:00,
2013-11-27 10:50:00,28.4,15.5,30.36,NW,304,0.0,2.0,58,0.00,,CLR,0.00,473.00,VWS V14.01,2013-11-27 16:50:00,
2013-11-27 10:54:00,28.4,14.7,30.36,NW,321,2.0,5.0,56,0.00,,CLR,0.00,476.00,VWS V14.01,2013-11-27 16:54:00,
2013-11-27 10:55:00,28.2,14.5,30.36,West,275,4.0,5.0,56,0.00,,CLR,0.00,476.00,VWS V14.01,2013-11-27 16:55:00,
2013-11-27 10:59:00,27.6,13.6,30.36,WNW,301,0.0,8.0,55,0.00,,CLR,0.00,482.00,VWS V14.01,2013-11-27 16:59:00,
2013-11-27 11:00:00,28.3,15.8,30.36,NW,325,2.0,8.0,59,0.00,,CLR,0.00,483.00,VWS V14.01,2013-11-27 17:00:00,
2013-11-27 11:04:00,28.9,15.2,30.36,NNW,338,2.0,5.0,56,0.00,,CLR,0.00,485.00,VWS V14.01,2013-11-27 17:04:00,
2013-11-27 11:05:00,28.7,15.0,30.36,North,351,1.0,5.0,56,0.00,,CLR,0.00,487.00,VWS V14.01,2013-11-27 17:05:00,
2013-11-27 11:09:00,28.9,15.6,30.36,NNW,346,2.0,3.0,57,0.00,,CLR,0.00,490.00,VWS V14.01,2013-11-27 17:09:00,
2013-11-27 11:10:00,28.7,14.2,30.36,NNW,346,1.0,3.0,54,0.00,,CLR,0.00,492.00,VWS V14.01,2013-11-27 17:10:00,
2013-11-27 11:14:00,28.9,15.2,30.36,NW,319,2.0,3.0,56,0.00,,CLR,0.00,494.00,VWS V14.01,2013-11-27 17:14:00,
2013-11-27 11:15:00,29.1,15.4,30.34,NE,37,2.0,4.0,56,0.00,,CLR,0.00,496.00,VWS V14.01,2013-11-27 17:15:00,
2013-11-27 11:19:00,29.5,14.9,30.34,NNW,341,0.0,3.0,54,0.00,,CLR,0.00,497.00,VWS V14.01,2013-11-27 17:19:00,
2013-11-27 11:20:00,29.4,14.8,30.34,North,350,1.0,4.0,54,0.00,,CLR,0.00,497.00,VWS V14.01,2013-11-27 17:20:00,
2013-11-27 11:24:00,29.4,14.8,30.34,East,88,2.0,5.0,54,0.00,,CLR,0.00,503.00,VWS V14.01,2013-11-27 17:24:00,
2013-11-27 11:25:00,29.2,14.6,30.34,NW,313,0.0,5.0,54,0.00,,CLR,0.00,503.00,VWS V14.01,2013-11-27 17:25:00,
2013-11-27 11:29:00,29.4,15.2,30.34,North,350,1.0,4.0,55,0.00,,CLR,0.00,503.00,VWS V14.01,2013-11-27 17:29:00,
2013-11-27 11:30:00,29.5,15.3,30.34,NW,325,0.0,4.0,55,0.00,,CLR,0.00,503.00,VWS V14.01,2013-11-27 17:30:00,
2013-11-27 11:34:00,30.3,15.7,30.34,NNW,346,0.0,3.0,54,0.00,,CLR,0.00,506.00,VWS V14.01,2013-11-27 17:34:00,
2013-11-27 11:35:00,30.0,15.0,30.34,NNW,346,0.0,3.0,53,0.00,,CLR,0.00,504.00,VWS V14.01,2013-11-27 17:35:00,
2013-11-27 11:39:00,29.4,14.0,30.34,West,273,4.0,7.0,52,0.00,,CLR,0.00,510.00,VWS V14.01,2013-11-27 17:39:00,
2013-11-27 11:40:00,29.1,14.5,30.34,WNW,288,3.0,7.0,54,0.00,,CLR,0.00,510.00,VWS V14.01,2013-11-27 17:40:00,
2013-11-27 11:44:00,29.6,15.4,30.34,WNW,301,1.0,4.0,55,0.00,,CLR,0.00,508.00,VWS V14.01,2013-11-27 17:44:00,
2013-11-27 11:45:00,29.3,14.7,30.34,WSW,254,2.0,4.0,54,0.00,,CLR,0.00,508.00,VWS V14.01,2013-11-27 17:45:00,
2013-11-27 11:49:00,28.7,13.8,30.34,West,270,3.0,4.0,53,0.00,,CLR,0.00,508.00,VWS V14.01,2013-11-27 17:49:00,
2013-11-27 11:50:00,28.8,14.3,30.34,NW,311,5.0,6.0,54,0.00,,CLR,0.00,510.00,VWS V14.01,2013-11-27 17:50:00,
2013-11-27 11:54:00,29.7,15.5,30.34,NE,53,0.0,5.0,55,0.00,,CLR,0.00,512.00,VWS V14.01,2013-11-27 17:54:00,
2013-11-27 11:55:00,30.5,17.5,30.34,NNE,30,1.0,5.0,58,0.00,,CLR,0.00,510.00,VWS V14.01,2013-11-27 17:55:00,
2013-11-27 11:59:00,31.2,15.6,30.34,North,5,2.0,4.0,52,0.00,,CLR,0.00,508.00,VWS V14.01,2013-11-27 17:59:00,
2013-11-27 12:00:00,31.2,15.6,30.33,North,360,0.0,4.0,52,0.00,,CLR,0.00,508.00,VWS V14.01,2013-11-27 18:00:00,
2013-11-27 12:04:00,31.0,15.9,30.33,NW,304,0.0,4.0,53,0.00,,CLR,0.00,510.00,VWS V14.01,2013-11-27 18:04:00,
2013-11-27 12:05:00,30.8,15.3,30.33,NE,36,0.0,4.0,52,0.00,,CLR,0.00,506.00,VWS V14.01,2013-11-27 18:05:00,
2013-11-27 12:09:00,31.4,16.7,30.33,WNW,292,4.0,4.0,54,0.00,,CLR,0.00,510.00,VWS V14.01,2013-11-27 18:09:00,
2013-11-27 12:10:00,31.2,15.2,30.33,WNW,294,1.0,5.0,51,0.00,,CLR,0.00,510.00,VWS V14.01,2013-11-27 18:10:00,
2013-11-27 12:14:00,31.0,15.4,30.33,NW,313,3.0,5.0,52,0.00,,CLR,0.00,506.00,VWS V14.01,2013-11-27 18:14:00,
2013-11-27 12:15:00,30.8,14.4,30.32,NW,304,2.0,8.0,50,0.00,,CLR,0.00,506.00,VWS V14.01,2013-11-27 18:15:00,
2013-11-27 12:19:00,30.7,15.2,30.32,WSW,248,3.0,4.0,52,0.00,,CLR,0.00,504.00,VWS V14.01,2013-11-27 18:19:00,
2013-11-27 12:20:00,30.7,15.2,30.32,NNW,335,1.0,4.0,52,0.00,,CLR,0.00,504.00,VWS V14.01,2013-11-27 18:20:00,
2013-11-27 12:24:00,30.2,13.8,30.32,NW,322,1.0,6.0,50,0.00,,CLR,0.00,503.00,VWS V14.01,2013-11-27 18:24:00,
2013-11-27 12:25:00,30.2,14.3,30.32,West,260,4.0,6.0,51,0.00,,CLR,0.00,503.00,VWS V14.01,2013-11-27 18:25:00,
2013-11-27 12:29:00,30.3,14.4,30.32,West,265,2.0,7.0,51,0.00,,CLR,0.00,501.00,VWS V14.01,2013-11-27 18:29:00,
2013-11-27 12:30:00,30.1,14.2,30.32,WNW,296,3.0,7.0,51,0.00,,CLR,0.00,501.00,VWS V14.01,2013-11-27 18:30:00,
2013-11-27 12:34:00,30.8,15.7,30.32,NE,47,1.0,3.0,53,0.00,,CLR,0.00,497.00,VWS V14.01,2013-11-27 18:34:00,
2013-11-27 12:35:00,30.9,15.8,30.32,NNE,29,0.0,3.0,53,0.00,,CLR,0.00,497.00,VWS V14.01,2013-11-27 18:35:00,
2013-11-27 12:39:00,31.3,14.4,30.32,WSW,255,3.0,7.0,49,0.00,,CLR,0.00,494.00,VWS V14.01,2013-11-27 18:39:00,
2013-11-27 12:40:00,31.0,14.6,30.32,WSW,255,3.0,7.0,50,0.00,,CLR,0.00,494.00,VWS V14.01,2013-11-27 18:40:00,
2013-11-27 12:44:00,30.6,14.2,30.32,West,267,5.0,8.0,50,0.00,,CLR,0.00,492.00,VWS V14.01,2013-11-27 18:44:00,
2013-11-27 12:45:00,30.5,13.6,30.31,WNW,299,1.0,8.0,49,0.00,,CLR,0.00,490.00,VWS V14.01,2013-11-27 18:45:00,
2013-11-27 12:49:00,30.7,14.7,30.31,West,280,5.0,9.0,51,0.00,,CLR,0.00,487.00,VWS V14.01,2013-11-27 18:49:00,
2013-11-27 12:50:00,30.9,14.9,30.31,West,268,6.0,9.0,51,0.00,,CLR,0.00,487.00,VWS V14.01,2013-11-27 18:50:00,
2013-11-27 12:54:00,31.0,14.6,30.31,NNW,336,2.0,10.0,50,0.00,,CLR,0.00,482.00,VWS V14.01,2013-11-27 18:54:00,
2013-11-27 12:55:00,30.9,14.5,30.31,West,261,3.0,10.0,50,0.00,,CLR,0.00,482.00,VWS V14.01,2013-11-27 18:55:00,
2013-11-27 12:56:00,30.9,14.5,30.31,West,263,1.0,3.0,50,0.00,,CLR,0.00,482.00,VWS V14.01,2013-11-27 18:56:00,
2013-11-27 13:00:00,30.8,13.4,30.31,WSW,254,4.0,8.0,48,0.00,,CLR,0.00,476.00,VWS V14.01,2013-11-27 19:00:00,
2013-11-27 13:02:00,30.7,13.8,30.31,West,263,2.0,4.0,49,0.00,,CLR,0.00,476.00,VWS V14.01,2013-11-27 19:02:00,
2013-11-27 13:05:00,31.9,15.8,30.31,NW,317,2.0,7.0,51,0.00,,CLR,0.00,473.00,VWS V14.01,2013-11-27 19:05:00,
2013-11-27 13:07:00,32.3,16.2,30.31,NW,317,1.0,2.0,51,0.00,,CLR,0.00,471.00,VWS V14.01,2013-11-27 19:07:00,
2013-11-27 13:10:00,32.5,15.0,30.31,West,277,2.0,4.0,48,0.00,,CLR,0.00,468.00,VWS V14.01,2013-11-27 19:10:00,
2013-11-27 13:12:00,32.4,14.4,30.31,West,277,5.0,7.0,47,0.00,,CLR,0.00,468.00,VWS V14.01,2013-11-27 19:12:00,
2013-11-27 13:15:00,31.7,14.3,30.30,West,266,3.0,7.0,48,0.00,,CLR,0.00,462.00,VWS V14.01,2013-11-27 19:15:00,
2013-11-27 13:17:00,31.8,15.3,30.30,WSW,242,1.0,3.0,50,0.00,,CLR,0.00,461.00,VWS V14.01,2013-11-27 19:17:00,
2013-11-27 13:20:00,32.7,15.7,30.30,NNW,341,5.0,6.0,49,0.00,,CLR,0.00,455.00,VWS V14.01,2013-11-27 19:20:00,
2013-11-27 13:22:00,32.9,15.9,30.30,NW,314,0.0,5.0,49,0.00,,CLR,0.00,454.00,VWS V14.01,2013-11-27 19:22:00,
2013-11-27 13:25:00,33.6,16.0,30.30,West,267,6.0,6.0,48,0.00,,CLR,0.00,450.00,VWS V14.01,2013-11-27 19:25:00,
2013-11-27 13:27:00,33.4,15.4,30.30,NW,326,2.0,6.0,47,0.00,,CLR,0.00,448.00,VWS V14.01,2013-11-27 19:27:00,
2013-11-27 13:30:00,32.1,13.7,30.29,SW,227,0.0,6.0,46,0.00,,CLR,0.00,445.00,VWS V14.01,2013-11-27 19:30:00,
2013-11-27 13:32:00,31.9,14.0,30.29,SW,227,1.0,1.0,47,0.00,,CLR,0.00,441.00,VWS V14.01,2013-11-27 19:32:00,
2013-11-27 13:35:00,32.7,15.7,30.29,West,262,5.0,6.0,49,0.00,,CLR,0.00,438.00,VWS V14.01,2013-11-27 19:35:00,
2013-11-27 13:37:00,32.6,14.6,30.29,West,273,1.0,8.0,47,0.00,,CLR,0.00,434.00,VWS V14.01,2013-11-27 19:37:00,
2013-11-27 13:40:00,33.1,14.6,30.29,NW,309,2.0,8.0,46,0.00,,CLR,0.00,429.00,VWS V14.01,2013-11-27 19:40:00,
2013-11-27 13:42:00,33.2,15.6,30.29,NNE,26,3.0,3.0,48,0.00,,CLR,0.00,424.00,VWS V14.01,2013-11-27 19:42:00,
2013-11-27 13:45:00,33.3,14.8,30.30,NNE,22,0.0,3.0,46,0.00,,CLR,0.00,418.00,VWS V14.01,2013-11-27 19:45:00,
2013-11-27 13:47:00,33.1,15.1,30.30,NW,318,1.0,2.0,47,0.00,,CLR,0.00,417.00,VWS V14.01,2013-11-27 19:47:00,
2013-11-27 13:50:00,33.4,15.4,30.30,NNE,30,2.0,3.0,47,0.00,,CLR,0.00,410.00,VWS V14.01,2013-11-27 19:50:00,
2013-11-27 13:52:00,33.6,16.0,30.30,NNE,23,2.0,3.0,48,0.00,,CLR,0.00,408.00,VWS V14.01,2013-11-27 19:52:00,
2013-11-27 13:55:00,33.7,14.6,30.30,West,263,0.0,5.0,45,0.00,,CLR,0.00,406.00,VWS V14.01,2013-11-27 19:55:00,
2013-11-27 13:57:00,33.5,14.4,30.30,NW,311,1.0,3.0,45,0.00,,CLR,0.00,406.00,VWS V14.01,2013-11-27 19:57:00,
2013-11-27 14:00:00,33.0,13.5,30.28,SW,233,0.0,7.0,44,0.00,,CLR,0.00,394.00,VWS V14.01,2013-11-27 20:00:00,
2013-11-27 14:02:00,32.7,13.7,30.28,West,278,4.0,4.0,45,0.00,,CLR,0.00,392.00,VWS V14.01,2013-11-27 20:02:00,
2013-11-27 14:05:00,32.5,14.0,30.28,SW,232,5.0,7.0,46,0.00,,CLR,0.00,387.00,VWS V14.01,2013-11-27 20:05:00,
2013-11-27 14:07:00,32.5,14.0,30.28,West,271,2.0,7.0,46,0.00,,CLR,0.00,383.00,VWS V14.01,2013-11-27 20:07:00,
2013-11-27 14:10:00,33.3,15.3,30.28,WSW,238,2.0,7.0,47,0.00,,CLR,0.00,376.00,VWS V14.01,2013-11-27 20:10:00,
2013-11-27 14:12:00,33.2,14.7,30.28,West,271,0.0,3.0,46,0.00,,CLR,0.00,373.00,VWS V14.01,2013-11-27 20:12:00,
2013-11-27 14:15:00,34.0,16.4,30.28,NNW,327,2.0,3.0,48,0.00,,CLR,0.00,364.00,VWS V14.01,2013-11-27 20:15:00,
2013-11-27 14:17:00,34.1,15.5,30.28,WNW,302,2.0,2.0,46,0.00,,CLR,0.00,362.00,VWS V14.01,2013-11-27 20:17:00,
2013-11-27 14:20:00,33.9,14.3,30.28,NNW,348,0.0,5.0,44,0.00,,CLR,0.00,355.00,VWS V14.01,2013-11-27 20:20:00,
2013-11-27 14:22:00,33.9,14.8,30.28,NNW,346,0.0,1.0,45,0.00,,CLR,0.00,353.00,VWS V14.01,2013-11-27 20:22:00,
2013-11-27 14:25:00,34.3,15.2,30.28,SW,229,3.0,4.0,45,0.00,,CLR,0.00,346.00,VWS V14.01,2013-11-27 20:25:00,
2013-11-27 14:27:00,34.3,15.2,30.28,SW,229,0.0,3.0,45,0.00,,CLR,0.00,343.00,VWS V14.01,2013-11-27 20:27:00,
2013-11-27 14:30:00,34.1,15.0,30.28,West,267,3.0,7.0,45,0.00,,CLR,0.00,339.00,VWS V14.01,2013-11-27 20:30:00,
2013-11-27 14:32:00,34.3,16.7,30.28,West,262,3.0,3.0,48,0.00,,CLR,0.00,334.00,VWS V14.01,2013-11-27 20:32:00,
2013-11-27 14:35:00,33.6,15.0,30.28,West,259,4.0,7.0,46,0.00,,CLR,0.00,323.00,VWS V14.01,2013-11-27 20:35:00,
2013-11-27 14:37:00,33.4,14.4,30.28,West,263,2.0,7.0,45,0.00,,CLR,0.00,323.00,VWS V14.01,2013-11-27 20:37:00,
2013-11-27 14:40:00,33.3,14.8,30.28,West,269,3.0,7.0,46,0.00,,CLR,0.00,313.00,VWS V14.01,2013-11-27 20:40:00,
2013-11-27 14:42:00,33.2,16.1,30.28,NW,319,0.0,3.0,49,0.00,,CLR,0.00,309.00,VWS V14.01,2013-11-27 20:42:00,
2013-11-27 14:45:00,33.6,14.5,30.28,West,271,5.0,7.0,45,0.00,,CLR,0.00,301.00,VWS V14.01,2013-11-27 20:45:00,
2013-11-27 14:47:00,33.4,14.4,30.28,WNW,285,2.0,6.0,45,0.00,,CLR,0.00,301.00,VWS V14.01,2013-11-27 20:47:00,
2013-11-27 14:50:00,33.6,15.5,30.28,West,267,6.0,7.0,47,0.00,,CLR,0.00,290.00,VWS V14.01,2013-11-27 20:50:00,
2013-11-27 14:52:00,33.4,14.4,30.28,SW,232,2.0,6.0,45,0.00,,CLR,0.00,287.00,VWS V14.01,2013-11-27 20:52:00,
2013-11-27 14:55:00,33.3,14.8,30.28,North,5,1.0,6.0,46,0.00,,CLR,0.00,278.00,VWS V14.01,2013-11-27 20:55:00,
2013-11-27 14:57:00,33.8,15.2,30.28,North,5,1.0,1.0,46,0.00,,CLR,0.00,274.00,VWS V14.01,2013-11-27 20:57:00,
2013-11-27 15:00:00,34.2,15.1,30.28,North,5,0.0,3.0,45,0.00,,CLR,0.00,265.00,VWS V14.01,2013-11-27 21:00:00,
2013-11-27 15:02:00,34.5,15.9,30.28,West,268,7.0,7.0,46,0.00,,CLR,0.00,262.00,VWS V14.01,2013-11-27 21:02:00,
2013-11-27 15:05:00,33.9,14.8,30.28,West,259,4.0,7.0,45,0.00,,CLR,0.00,255.00,VWS V14.01,2013-11-27 21:05:00,
2013-11-27 15:07:00,33.6,14.0,30.28,SW,225,5.0,6.0,44,0.00,,CLR,0.00,251.00,VWS V14.01,2013-11-27 21:07:00,
2013-11-27 15:10:00,33.5,14.4,30.28,NW,306,2.0,6.0,45,0.00,,CLR,0.00,244.00,VWS V14.01,2013-11-27 21:10:00,
2013-11-27 15:12:00,33.4,14.4,30.28,WSW,252,0.0,4.0,45,0.00,,CLR,0.00,241.00,VWS V14.01,2013-11-27 21:12:00,
2013-11-27 15:15:00,34.1,16.0,30.28,West,268,3.0,4.0,47,0.00,,CLR,0.00,232.00,VWS V14.01,2013-11-27 21:15:00,
2013-11-27 15:17:00,34.4,15.8,30.28,North,11,0.0,4.0,46,0.00,,CLR,0.00,227.00,VWS V14.01,2013-11-27 21:17:00,
2013-11-27 15:20:00,34.1,15.0,30.28,NW,307,2.0,4.0,45,0.00,,CLR,0.00,223.00,VWS V14.01,2013-11-27 21:20:00,
2013-11-27 15:22:00,34.0,14.4,30.28,WNW,296,1.0,2.0,44,0.00,,CLR,0.00,216.00,VWS V14.01,2013-11-27 21:22:00,
2013-11-27 15:25:00,33.7,13.6,30.28,SW,228,2.0,5.0,43,0.00,,CLR,0.00,207.00,VWS V14.01,2013-11-27 21:25:00,
2013-11-27 15:27:00,33.4,14.4,30.28,NW,306,3.0,4.0,45,0.00,,CLR,0.00,204.00,VWS V14.01,2013-11-27 21:27:00,
2013-11-27 15:30:00,33.7,15.1,30.27,WNW,301,0.0,4.0,46,0.00,,CLR,0.00,195.00,VWS V14.01,2013-11-27 21:30:00,
2013-11-27 15:32:00,33.8,14.2,30.27,WNW,292,2.0,3.0,44,0.00,,CLR,0.00,190.00,VWS V14.01,2013-11-27 21:32:00,
2013-11-27 15:35:00,33.4,14.4,30.27,WNW,286,1.0,3.0,45,0.00,,CLR,0.00,183.00,VWS V14.01,2013-11-27 21:35:00,
2013-11-27 15:37:00,33.4,13.9,30.27,WNW,286,2.0,3.0,44,0.00,,CLR,0.00,178.00,VWS V14.01,2013-11-27 21:37:00,
2013-11-27 15:40:00,33.5,14.4,30.27,WNW,292,2.0,3.0,45,0.00,,CLR,0.00,172.00,VWS V14.01,2013-11-27 21:40:00,
2013-11-27 15:42:00,33.3,13.8,30.27,West,261,2.0,5.0,44,0.00,,CLR,0.00,167.00,VWS V14.01,2013-11-27 21:42:00,
2013-11-27 15:45:00,33.2,14.2,30.28,West,261,0.0,5.0,45,0.00,,CLR,0.00,158.00,VWS V14.01,2013-11-27 21:45:00,
2013-11-27 15:48:00,33.2,14.2,30.28,West,261,0.0,1.0,45,0.00,,CLR,0.00,149.00,VWS V14.01,2013-11-27 21:48:00,
2013-11-27 15:50:00,33.4,14.4,30.28,WSW,254,0.0,5.0,45,0.00,,CLR,0.00,141.00,VWS V14.01,2013-11-27 21:50:00,
2013-11-27 15:53:00,33.4,14.4,30.28,WSW,249,3.0,3.0,45,0.00,,CLR,0.00,134.00,VWS V14.01,2013-11-27 21:53:00,
2013-11-27 15:55:00,33.4,14.4,30.28,NW,305,1.0,3.0,45,0.00,,CLR,0.00,127.00,VWS V14.01,2013-11-27 21:55:00,
2013-11-27 15:58:00,33.4,14.4,30.28,NW,305,0.0,2.0,45,0.00,,CLR,0.00,121.00,VWS V14.01,2013-11-27 21:58:00,
2013-11-27 16:00:00,33.5,14.4,30.27,WSW,254,3.0,4.0,45,0.00,,CLR,0.00,111.00,VWS V14.01,2013-11-27 22:00:00,
2013-11-27 16:03:00,33.3,15.3,30.27,NNW,343,3.0,3.0,47,0.00,,CLR,0.00,105.00,VWS V14.01,2013-11-27 22:03:00,
2013-11-27 16:05:00,33.2,13.7,30.27,WSW,258,0.0,5.0,44,0.00,,CLR,0.00,95.00,VWS V14.01,2013-11-27 22:05:00,
2013-11-27 16:08:00,33.1,14.1,30.27,West,259,0.0,2.0,45,0.00,,CLR,0.00,93.00,VWS V14.01,2013-11-27 22:08:00,
2013-11-27 16:10:00,33.0,13.5,30.27,WSW,244,3.0,3.0,44,0.00,,CLR,0.00,81.00,VWS V14.01,2013-11-27 22:10:00,
2013-11-27 16:13:00,33.0,14.0,30.27,WSW,248,0.0,3.0,45,0.00,,CLR,0.00,76.00,VWS V14.01,2013-11-27 22:13:00,
2013-11-27 16:15:00,32.9,14.4,30.27,West,262,2.0,3.0,46,0.00,,CLR,0.00,67.00,VWS V14.01,2013-11-27 22:15:00,
2013-11-27 16:18:00,32.8,13.8,30.27,West,265,1.0,3.0,45,0.00,,CLR,0.00,65.00,VWS V14.01,2013-11-27 22:18:00,
2013-11-27 16:20:00,32.6,13.6,30.27,West,265,2.0,3.0,45,0.00,,CLR,0.00,56.00,VWS V14.01,2013-11-27 22:20:00,
2013-11-27 16:23:00,32.6,14.1,30.27,West,265,0.0,4.0,46,0.00,,CLR,0.00,47.00,VWS V14.01,2013-11-27 22:23:00,
2013-11-27 16:25:00,32.7,13.7,30.27,NW,306,0.0,4.0,45,0.00,,CLR,0.00,42.00,VWS V14.01,2013-11-27 22:25:00,
2013-11-27 16:28:00,32.6,13.6,30.27,NW,305,0.0,2.0,45,0.00,,CLR,0.00,39.00,VWS V14.01,2013-11-27 22:28:00,
2013-11-27 16:30:00,32.4,12.9,30.27,NW,305,0.0,2.0,44,0.00,,CLR,0.00,33.00,VWS V14.01,2013-11-27 22:30:00,
2013-11-27 16:33:00,32.3,12.8,30.27,NW,305,1.0,2.0,44,0.00,,CLR,0.00,30.00,VWS V14.01,2013-11-27 22:33:00,
2013-11-27 16:35:00,32.3,12.8,30.27,NW,305,0.0,2.0,44,0.00,,CLR,0.00,21.00,VWS V14.01,2013-11-27 22:35:00,
2013-11-27 16:38:00,32.2,13.3,30.27,WNW,292,2.0,3.0,45,0.00,,CLR,0.00,19.00,VWS V14.01,2013-11-27 22:38:00,
2013-11-27 16:40:00,32.0,13.6,30.27,WNW,290,0.0,3.0,46,0.00,,CLR,0.00,16.00,VWS V14.01,2013-11-27 22:40:00,
2013-11-27 16:43:00,31.9,13.0,30.27,WNW,290,0.0,1.0,45,0.00,,CLR,0.00,12.00,VWS V14.01,2013-11-27 22:43:00,
2013-11-27 16:45:00,31.7,13.8,30.27,WNW,290,0.0,1.0,47,0.00,,CLR,0.00,11.00,VWS V14.01,2013-11-27 22:45:00,
2013-11-27 16:48:00,31.6,14.2,30.27,WNW,290,0.0,0.0,48,0.00,,CLR,0.00,11.00,VWS V14.01,2013-11-27 22:48:00,
2013-11-27 16:50:00,31.5,13.6,30.27,WNW,290,0.0,0.0,47,0.00,,CLR,0.00,7.00,VWS V14.01,2013-11-27 22:50:00,
2013-11-27 16:53:00,31.4,13.5,30.27,WNW,290,0.0,0.0,47,0.00,,CLR,0.00,7.00,VWS V14.01,2013-11-27 22:53:00,
2013-11-27 16:55:00,31.3,13.4,30.27,WNW,290,0.0,0.0,47,0.00,,CLR,0.00,5.00,VWS V14.01,2013-11-27 22:55:00,
2013-11-27 16:58:00,31.2,13.3,30.27,WNW,290,0.0,0.0,47,0.00,,CLR,0.00,0.00,VWS V14.01,2013-11-27 22:58:00,
2013-11-27 17:00:00,31.0,13.6,30.27,WNW,290,0.0,0.0,48,0.00,,CLR,0.00,0.00,VWS V14.01,2013-11-27 23:00:00,
2013-11-27 17:03:00,30.8,13.0,30.27,WNW,290,0.0,0.0,47,0.00,,CLR,0.00,0.00,VWS V14.01,2013-11-27 23:03:00,
2013-11-27 17:05:00,30.7,13.4,30.27,WNW,290,0.0,0.0,48,0.00,,CLR,0.00,0.00,VWS V14.01,2013-11-27 23:05:00,
2013-11-27 17:08:00,30.5,13.2,30.27,WNW,290,0.0,0.0,48,0.00,,CLR,0.00,0.00,VWS V14.01,2013-11-27 23:08:00,
2013-11-27 17:10:00,30.3,13.4,30.27,WNW,290,0.0,0.0,49,0.00,,CLR,0.00,0.00,VWS V14.01,2013-11-27 23:10:00,
2013-11-27 17:13:00,30.1,13.3,30.27,WNW,290,0.0,0.0,49,0.00,,CLR,0.00,0.00,VWS V14.01,2013-11-27 23:13:00,
2013-11-27 17:15:00,30.1,13.3,30.26,WNW,290,0.0,0.0,49,0.00,,CLR,0.00,0.00,VWS V14.01,2013-11-27 23:15:00,
2013-11-27 17:18:00,30.0,13.2,30.26,WNW,290,0.0,0.0,49,0.00,,CLR,0.00,0.00,VWS V14.01,2013-11-27 23:18:00,
2013-11-27 17:20:00,29.9,13.1,30.26,WNW,290,0.0,0.0,49,0.00,,CLR,0.00,0.00,VWS V14.01,2013-11-27 23:20:00,
2013-11-27 17:23:00,29.8,13.0,30.26,WNW,290,0.0,0.0,49,0.00,,CLR,0.00,0.00,VWS V14.01,2013-11-27 23:23:00,
2013-11-27 17:25:00,29.7,12.9,30.26,WNW,290,0.0,0.0,49,0.00,,CLR,0.00,0.00,VWS V14.01,2013-11-27 23:25:00,
2013-11-27 17:28:00,29.7,13.4,30.26,WNW,290,0.0,0.0,50,0.00,,CLR,0.00,0.00,VWS V14.01,2013-11-27 23:28:00,
2013-11-27 17:30:00,29.6,13.3,30.26,WNW,290,0.0,0.0,50,0.00,,CLR,0.00,0.00,VWS V14.01,2013-11-27 23:30:00,
2013-11-27 17:33:00,29.5,13.2,30.26,WNW,290,0.0,0.0,50,0.00,,CLR,0.00,0.00,VWS V14.01,2013-11-27 23:33:00,
2013-11-27 17:35:00,29.4,13.1,30.26,WNW,290,0.0,0.0,50,0.00,,CLR,0.00,0.00,VWS V14.01,2013-11-27 23:35:00,
2013-11-27 17:38:00,29.5,13.2,30.26,WNW,290,0.0,0.0,50,0.00,,CLR,0.00,0.00,VWS V14.01,2013-11-27 23:38:00,
2013-11-27 17:40:00,29.4,13.5,30.26,WNW,290,0.0,0.0,51,0.00,,CLR,0.00,0.00,VWS V14.01,2013-11-27 23:40:00,
2013-11-27 17:43:00,28.9,13.5,30.26,WNW,290,0.0,0.0,52,0.00,,CLR,0.00,0.00,VWS V14.01,2013-11-27 23:43:00,
2013-11-27 17:45:00,28.5,13.6,30.26,WNW,290,0.0,0.0,53,0.00,,CLR,0.00,0.00,VWS V14.01,2013-11-27 23:45:00,
2013-11-27 17:48:00,28.4,13.0,30.26,WNW,290,0.0,0.0,52,0.00,,CLR,0.00,0.00,VWS V14.01,2013-11-27 23:48:00,
2013-11-27 17:50:00,28.5,13.1,30.26,WNW,290,0.0,0.0,52,0.00,,CLR,0.00,0.00,VWS V14.01,2013-11-27 23:50:00,
2013-11-27 17:53:00,28.5,13.1,30.26,WNW,290,0.0,0.0,52,0.00,,CLR,0.00,0.00,VWS V14.01,2013-11-27 23:53:00,
2013-11-27 17:55:00,28.4,13.0,30.26,WNW,290,0.0,0.0,52,0.00,,CLR,0.00,0.00,VWS V14.01,2013-11-27 23:55:00,
2013-11-27 17:58:00,28.5,14.0,30.26,WNW,290,0.0,0.0,54,0.00,,CLR,0.00,0.00,VWS V14.01,2013-11-27 23:58:00,
2013-11-27 18:00:00,28.5,14.4,30.26,WNW,290,0.0,0.0,55,0.00,,CLR,0.00,0.00,VWS V14.01,2013-11-28 00:00:00,
2013-11-27 18:03:00,28.6,14.1,30.26,WNW,290,0.0,0.0,54,0.00,,CLR,0.00,0.00,VWS V14.01,2013-11-28 00:03:00,
2013-11-27 18:05:00,28.7,14.2,30.26,WNW,290,0.0,0.0,54,0.00,,CLR,0.00,0.00,VWS V14.01,2013-11-28 00:05:00,
2013-11-27 18:08:00,28.7,14.2,30.26,WNW,290,0.0,0.0,54,0.00,,CLR,0.00,0.00,VWS V14.01,2013-11-28 00:08:00,
2013-11-27 18:10:00,28.6,13.6,30.26,WNW,290,0.0,0.0,53,0.00,,CLR,0.00,0.00,VWS V14.01,2013-11-28 00:10:00,
2013-11-27 18:13:00,28.6,13.6,30.26,WNW,290,0.0,0.0,53,0.00,,CLR,0.00,0.00,VWS V14.01,2013-11-28 00:13:00,
2013-11-27 18:15:00,28.7,13.7,30.27,WNW,290,0.0,0.0,53,0.00,,CLR,0.00,0.00,VWS V14.01,2013-11-28 00:15:00,
2013-11-27 18:18:00,28.8,13.8,30.27,WNW,290,0.0,0.0,53,0.00,,CLR,0.00,0.00,VWS V14.01,2013-11-28 00:18:00,
2013-11-27 18:20:00,28.8,13.8,30.27,WNW,290,0.0,0.0,53,0.00,,CLR,0.00,0.00,VWS V14.01,2013-11-28 00:20:00,
2013-11-27 18:23:00,28.7,13.8,30.27,WNW,290,0.0,0.0,53,0.00,,CLR,0.00,0.00,VWS V14.01,2013-11-28 00:23:00,
2013-11-27 18:25:00,28.6,13.6,30.27,WNW,290,0.0,0.0,53,0.00,,CLR,0.00,0.00,VWS V14.01,2013-11-28 00:25:00,
2013-11-27 18:28:00,28.5,13.6,30.27,WNW,290,0.0,0.0,53,0.00,,CLR,0.00,0.00,VWS V14.01,2013-11-28 00:28:00,
2013-11-27 18:30:00,28.2,13.3,30.27,WNW,290,0.0,0.0,53,0.00,,CLR,0.00,0.00,VWS V14.01,2013-11-28 00:30:00,
2013-11-27 18:34:00,27.8,13.3,30.27,WNW,290,0.0,0.0,54,0.00,,CLR,0.00,0.00,VWS V14.01,2013-11-28 00:34:00,
2013-11-27 18:35:00,27.6,13.1,30.27,WNW,290,0.0,0.0,54,0.00,,CLR,0.00,0.00,VWS V14.01,2013-11-28 00:35:00,
2013-11-27 18:39:00,27.8,13.3,30.27,WNW,290,0.0,0.0,54,0.00,,CLR,0.00,0.00,VWS V14.01,2013-11-28 00:39:00,
2013-11-27 18:40:00,28.0,13.5,30.27,WNW,290,0.0,0.0,54,0.00,,CLR,0.00,0.00,VWS V14.01,2013-11-28 00:40:00,
2013-11-27 18:44:00,28.1,13.2,30.27,WNW,290,0.0,0.0,53,0.00,,CLR,0.00,0.00,VWS V14.01,2013-11-28 00:44:00,
2013-11-27 18:45:00,28.1,13.2,30.27,WNW,290,0.0,0.0,53,0.00,,CLR,0.00,0.00,VWS V14.01,2013-11-28 00:45:00,
2013-11-27 18:49:00,28.2,13.7,30.27,WNW,290,0.0,0.0,54,0.00,,CLR,0.00,0.00,VWS V14.01,2013-11-28 00:49:00,
2013-11-27 18:50:00,28.2,13.7,30.27,WNW,290,0.0,0.0,54,0.00,,CLR,0.00,0.00,VWS V14.01,2013-11-28 00:50:00,
2013-11-27 18:54:00,28.3,13.8,30.27,WNW,290,0.0,0.0,54,0.00,,CLR,0.00,0.00,VWS V14.01,2013-11-28 00:54:00,
2013-11-27 18:55:00,28.4,13.9,30.27,WNW,290,0.0,0.0,54,0.00,,CLR,0.00,0.00,VWS V14.01,2013-11-28 00:55:00,
2013-11-27 18:59:00,28.4,13.9,30.27,WNW,290,0.0,0.0,54,0.00,,CLR,0.00,0.00,VWS V14.01,2013-11-28 00:59:00,
2013-11-27 19:00:00,28.2,13.7,30.27,WNW,290,0.0,0.0,54,0.00,,CLR,0.00,0.00,VWS V14.01,2013-11-28 01:00:00,
2013-11-27 19:04:00,28.0,13.5,30.27,WNW,290,0.0,0.0,54,0.00,,CLR,0.00,0.00,VWS V14.01,2013-11-28 01:04:00,
2013-11-27 19:05:00,27.9,13.8,30.27,WNW,290,0.0,0.0,55,0.00,,CLR,0.00,0.00,VWS V14.01,2013-11-28 01:05:00,
2013-11-27 19:09:00,27.9,13.8,30.27,WNW,290,0.0,0.0,55,0.00,,CLR,0.00,0.00,VWS V14.01,2013-11-28 01:09:00,
2013-11-27 19:10:00,27.6,14.4,30.27,WNW,290,0.0,0.0,57,0.00,,CLR,0.00,0.00,VWS V14.01,2013-11-28 01:10:00,
2013-11-27 19:14:00,27.2,14.0,30.27,WNW,290,0.0,0.0,57,0.00,,CLR,0.00,0.00,VWS V14.01,2013-11-28 01:14:00,
2013-11-27 19:15:00,27.1,13.9,30.27,WNW,290,0.0,0.0,57,0.00,,CLR,0.00,0.00,VWS V14.01,2013-11-28 01:15:00,
2013-11-27 19:19:00,26.9,14.1,30.27,WNW,290,0.0,0.0,58,0.00,,CLR,0.00,0.00,VWS V14.01,2013-11-28 01:19:00,
2013-11-27 19:20:00,26.9,14.5,30.27,WNW,290,0.0,0.0,59,0.00,,CLR,0.00,0.00,VWS V14.01,2013-11-28 01:20:00,
2013-11-27 19:24:00,26.4,14.0,30.27,WNW,290,0.0,0.0,59,0.00,,CLR,0.00,0.00,VWS V14.01,2013-11-28 01:24:00,
2013-11-27 19:25:00,26.2,14.2,30.27,WNW,290,0.0,0.0,60,0.00,,CLR,0.00,0.00,VWS V14.01,2013-11-28 01:25:00,
2013-11-27 19:29:00,26.2,13.8,30.27,WNW,290,0.0,0.0,59,0.00,,CLR,0.00,0.00,VWS V14.01,2013-11-28 01:29:00,
2013-11-27 19:30:00,26.3,13.9,30.27,WNW,290,0.0,0.0,59,0.00,,CLR,0.00,0.00,VWS V14.01,2013-11-28 01:30:00,
2013-11-27 19:34:00,26.5,14.1,30.27,WNW,290,0.0,0.0,59,0.00,,CLR,0.00,0.00,VWS V14.01,2013-11-28 01:34:00,
2013-11-27 19:35:00,26.3,14.3,30.27,WNW,290,0.0,0.0,60,0.00,,CLR,0.00,0.00,VWS V14.01,2013-11-28 01:35:00,
2013-11-27 19:39:00,26.1,14.1,30.27,WNW,290,0.0,0.0,60,0.00,,CLR,0.00,0.00,VWS V14.01,2013-11-28 01:39:00,
2013-11-27 19:40:00,26.1,14.1,30.27,WNW,290,0.0,0.0,60,0.00,,CLR,0.00,0.00,VWS V14.01,2013-11-28 01:40:00,
2013-11-27 19:44:00,26.2,14.2,30.27,WNW,290,0.0,0.0,60,0.00,,CLR,0.00,0.00,VWS V14.01,2013-11-28 01:44:00,
2013-11-27 19:45:00,26.0,14.4,30.27,WNW,290,0.0,0.0,61,0.00,,CLR,0.00,0.00,VWS V14.01,2013-11-28 01:45:00,
2013-11-27 19:49:00,25.6,15.1,30.27,WNW,290,0.0,0.0,64,0.00,,CLR,0.00,0.00,VWS V14.01,2013-11-28 01:49:00,
2013-11-27 19:50:00,25.4,14.9,30.27,WNW,290,0.0,0.0,64,0.00,,CLR,0.00,0.00,VWS V14.01,2013-11-28 01:50:00,
2013-11-27 19:54:00,25.1,15.4,30.27,WNW,290,0.0,0.0,66,0.00,,CLR,0.00,0.00,VWS V14.01,2013-11-28 01:54:00,
2013-11-27 19:55:00,25.1,15.0,30.27,WNW,290,0.0,0.0,65,0.00,,CLR,0.00,0.00,VWS V14.01,2013-11-28 01:55:00,
2013-11-27 19:59:00,25.3,14.8,30.27,WNW,290,0.0,0.0,64,0.00,,CLR,0.00,0.00,VWS V14.01,2013-11-28 01:59:00,
2013-11-27 20:00:00,25.5,15.0,30.27,WNW,290,0.0,0.0,64,0.00,,CLR,0.00,0.00,VWS V14.01,2013-11-28 02:00:00,
2013-11-27 20:04:00,25.7,15.2,30.27,WNW,290,0.0,0.0,64,0.00,,CLR,0.00,0.00,VWS V14.01,2013-11-28 02:04:00,
2013-11-27 20:05:00,25.5,15.0,30.27,WNW,290,0.0,0.0,64,0.00,,CLR,0.00,0.00,VWS V14.01,2013-11-28 02:05:00,
2013-11-27 20:09:00,25.1,14.6,30.27,WNW,290,0.0,0.0,64,0.00,,CLR,0.00,0.00,VWS V14.01,2013-11-28 02:09:00,
2013-11-27 20:10:00,24.9,15.2,30.27,WNW,290,0.0,0.0,66,0.00,,CLR,0.00,0.00,VWS V14.01,2013-11-28 02:10:00,
2013-11-27 20:14:00,24.8,15.1,30.27,WNW,290,0.0,0.0,66,0.00,,CLR,0.00,0.00,VWS V14.01,2013-11-28 02:14:00,
2013-11-27 20:15:00,24.9,15.2,30.26,WNW,290,0.0,0.0,66,0.00,,CLR,0.00,0.00,VWS V14.01,2013-11-28 02:15:00,
2013-11-27 20:19:00,24.8,15.4,30.26,WNW,290,0.0,0.0,67,0.00,,CLR,0.00,0.00,VWS V14.01,2013-11-28 02:19:00,
2013-11-27 20:20:00,24.7,15.3,30.26,WNW,290,0.0,0.0,67,0.00,,CLR,0.00,0.00,VWS V14.01,2013-11-28 02:20:00,
2013-11-27 20:24:00,24.2,15.8,30.26,WNW,290,0.0,0.0,70,0.00,,CLR,0.00,0.00,VWS V14.01,2013-11-28 02:24:00,
2013-11-27 20:25:00,24.0,16.9,30.26,WNW,290,0.0,0.0,74,0.00,,CLR,0.00,0.00,VWS V14.01,2013-11-28 02:25:00,
2013-11-27 20:29:00,23.7,17.3,30.26,WNW,290,0.0,0.0,76,0.00,,CLR,0.00,0.00,VWS V14.01,2013-11-28 02:29:00,
2013-11-27 20:30:00,23.6,15.9,30.27,WNW,290,0.0,0.0,72,0.00,,CLR,0.00,0.00,VWS V14.01,2013-11-28 02:30:00,
2013-11-27 20:34:00,23.8,16.7,30.27,WNW,290,0.0,0.0,74,0.00,,CLR,0.00,0.00,VWS V14.01,2013-11-28 02:34:00,
2013-11-27 20:35:00,23.6,16.5,30.27,WNW,290,0.0,0.0,74,0.00,,CLR,0.00,0.00,VWS V14.01,2013-11-28 02:35:00,
2013-11-27 20:39:00,23.2,16.5,30.27,WNW,290,0.0,0.0,75,0.00,,CLR,0.00,0.00,VWS V14.01,2013-11-28 02:39:00,
2013-11-27 20:40:00,23.1,16.4,30.27,WNW,290,0.0,0.0,75,0.00,,CLR,0.00,0.00,VWS V14.01,2013-11-28 02:40:00,
2013-11-27 20:44:00,23.0,16.3,30.27,WNW,290,0.0,0.0,75,0.00,,CLR,0.00,0.00,VWS V14.01,2013-11-28 02:44:00,
2013-11-27 20:45:00,23.0,16.6,30.27,WNW,290,0.0,0.0,76,0.00,,CLR,0.00,0.00,VWS V14.01,2013-11-28 02:45:00,
2013-11-27 20:49:00,23.0,15.6,30.27,WNW,290,0.0,0.0,73,0.00,,CLR,0.00,0.00,VWS V14.01,2013-11-28 02:49:00,
2013-11-27 20:50:00,23.0,15.3,30.27,WNW,290,0.0,0.0,72,0.00,,CLR,0.00,0.00,VWS V14.01,2013-11-28 02:50:00,
2013-11-27 20:54:00,23.0,15.6,30.27,WNW,290,0.0,0.0,73,0.00,,CLR,0.00,0.00,VWS V14.01,2013-11-28 02:54:00,
2013-11-27 20:55:00,23.0,15.6,30.27,WNW,290,0.0,0.0,73,0.00,,CLR,0.00,0.00,VWS V14.01,2013-11-28 02:55:00,
2013-11-27 20:59:00,23.1,15.8,30.27,WNW,290,0.0,0.0,73,0.00,,CLR,0.00,0.00,VWS V14.01,2013-11-28 02:59:00,
2013-11-27 21:00:00,23.2,15.5,30.26,WNW,290,0.0,0.0,72,0.00,,CLR,0.00,0.00,VWS V14.01,2013-11-28 03:00:00,
2013-11-27 21:04:00,23.8,15.8,30.26,WNW,290,0.0,1.0,71,0.00,,CLR,0.00,0.00,VWS V14.01,2013-11-28 03:04:00,
2013-11-27 21:05:00,23.6,15.9,30.26,WNW,290,0.0,1.0,72,0.00,,CLR,0.00,0.00,VWS V14.01,2013-11-28 03:05:00,
2013-11-27 21:09:00,22.9,16.2,30.26,WNW,290,0.0,0.0,75,0.00,,CLR,0.00,0.00,VWS V14.01,2013-11-28 03:09:00,
2013-11-27 21:10:00,22.7,16.0,30.26,WNW,290,0.0,0.0,75,0.00,,CLR,0.00,0.00,VWS V14.01,2013-11-28 03:10:00,
2013-11-27 21:14:00,22.2,16.1,30.26,WNW,290,0.0,0.0,77,0.00,,CLR,0.00,0.00,VWS V14.01,2013-11-28 03:14:00,
2013-11-27 21:15:00,22.1,16.0,30.26,WNW,290,0.0,0.0,77,0.00,,CLR,0.00,0.00,VWS V14.01,2013-11-28 03:15:00,
2013-11-27 21:20:00,22.0,16.2,30.26,WNW,290,0.0,0.0,78,0.00,,CLR,0.00,0.00,VWS V14.01,2013-11-28 03:20:00,
2013-11-27 21:25:00,21.8,16.0,30.26,WNW,290,0.0,0.0,78,0.00,,CLR,0.00,0.00,VWS V14.01,2013-11-28 03:25:00,
2013-11-27 21:30:00,21.8,15.7,30.26,WNW,290,0.0,0.0,77,0.00,,CLR,0.00,0.00,VWS V14.01,2013-11-28 03:30:00,
2013-11-27 21:35:00,21.8,15.7,30.26,WNW,290,0.0,0.0,77,0.00,,CLR,0.00,0.00,VWS V14.01,2013-11-28 03:35:00,
2013-11-27 21:40:00,22.1,16.3,30.26,WNW,290,0.0,0.0,78,0.00,,CLR,0.00,0.00,VWS V14.01,2013-11-28 03:40:00,
2013-11-27 21:45:00,21.9,16.4,30.26,WNW,290,0.0,0.0,79,0.00,,CLR,0.00,0.00,VWS V14.01,2013-11-28 03:45:00,
2013-11-27 21:50:00,21.6,16.1,30.26,WNW,290,0.0,0.0,79,0.00,,CLR,0.00,0.00,VWS V14.01,2013-11-28 03:50:00,
2013-11-27 21:55:00,21.5,16.6,30.26,WNW,290,0.0,0.0,81,0.00,,CLR,0.00,0.00,VWS V14.01,2013-11-28 03:55:00,
2013-11-27 22:00:00,21.7,16.5,30.26,WNW,290,0.0,0.0,80,0.00,,CLR,0.00,0.00,VWS V14.01,2013-11-28 04:00:00,
2013-11-27 22:05:00,21.9,15.8,30.26,WNW,290,0.0,0.0,77,0.00,,CLR,0.00,0.00,VWS V14.01,2013-11-28 04:05:00,
2013-11-27 22:10:00,22.1,15.1,30.26,WNW,290,0.0,0.0,74,0.00,,CLR,0.00,0.00,VWS V14.01,2013-11-28 04:10:00,
2013-11-27 22:15:00,22.6,14.9,30.26,WNW,290,0.0,0.0,72,0.00,,CLR,0.00,0.00,VWS V14.01,2013-11-28 04:15:00,
2013-11-27 22:20:00,22.8,15.1,30.26,WNW,290,0.0,0.0,72,0.00,,CLR,0.00,0.00,VWS V14.01,2013-11-28 04:20:00,
2013-11-27 22:25:00,22.4,16.0,30.26,WNW,290,0.0,0.0,76,0.00,,CLR,0.00,0.00,VWS V14.01,2013-11-28 04:25:00,
2013-11-27 22:30:00,22.2,15.8,30.25,WNW,290,0.0,0.0,76,0.00,,CLR,0.00,0.00,VWS V14.01,2013-11-28 04:30:00,
2013-11-27 22:35:00,22.1,16.0,30.25,WNW,290,0.0,0.0,77,0.00,,CLR,0.00,0.00,VWS V14.01,2013-11-28 04:35:00,
2013-11-27 22:40:00,21.8,15.7,30.25,WNW,290,0.0,0.0,77,0.00,,CLR,0.00,0.00,VWS V14.01,2013-11-28 04:40:00,
2013-11-27 22:45:00,21.3,15.8,30.26,WNW,290,0.0,0.0,79,0.00,,CLR,0.00,0.00,VWS V14.01,2013-11-28 04:45:00,
2013-11-27 22:50:00,21.1,16.2,30.26,WNW,290,0.0,0.0,81,0.00,,CLR,0.00,0.00,VWS V14.01,2013-11-28 04:50:00,
2013-11-27 22:55:00,20.8,16.7,30.26,WNW,290,0.0,0.0,84,0.00,,CLR,0.00,0.00,VWS V14.01,2013-11-28 04:55:00,
2013-11-27 23:00:00,20.5,16.7,30.26,WNW,290,0.0,0.0,85,0.00,,CLR,0.00,0.00,VWS V14.01,2013-11-28 05:00:00,
2013-11-27 23:01:00,20.4,16.6,30.26,WNW,290,0.0,0.0,85,0.00,,CLR,0.00,0.00,VWS V14.01,2013-11-28 05:01:00,
2013-11-27 23:04:00,20.7,16.1,30.26,WNW,290,0.0,0.0,82,0.00,,CLR,0.00,0.00,VWS V14.01,2013-11-28 05:04:00,
2013-11-27 23:05:00,20.9,15.7,30.26,WNW,290,0.0,0.0,80,0.00,,CLR,0.00,0.00,VWS V14.01,2013-11-28 05:05:00,
2013-11-27 23:06:00,20.9,15.7,30.26,WNW,290,0.0,0.0,80,0.00,,CLR,0.00,0.00,VWS V14.01,2013-11-28 05:06:00,
2013-11-27 23:07:00,21.0,15.5,30.26,WNW,290,0.0,0.0,79,0.00,,CLR,0.00,0.00,VWS V14.01,2013-11-28 05:07:00,
2013-11-27 23:10:00,21.5,15.4,30.26,WNW,290,0.0,0.0,77,0.00,,CLR,0.00,0.00,VWS V14.01,2013-11-28 05:10:00,
2013-11-27 23:12:00,21.5,15.1,30.26,WNW,290,0.0,0.0,76,0.00,,CLR,0.00,0.00,VWS V14.01,2013-11-28 05:12:00,
2013-11-27 23:15:00,22.1,15.1,30.26,WNW,290,0.0,0.0,74,0.00,,CLR,0.00,0.00,VWS V14.01,2013-11-28 05:15:00,
2013-11-27 23:17:00,22.1,15.1,30.26,WNW,290,0.0,0.0,74,0.00,,CLR,0.00,0.00,VWS V14.01,2013-11-28 05:17:00,
2013-11-27 23:20:00,21.7,16.5,30.26,WNW,290,0.0,0.0,80,0.00,,CLR,0.00,0.00,VWS V14.01,2013-11-28 05:20:00,
2013-11-27 23:22:00,21.7,16.2,30.26,WNW,290,0.0,0.0,79,0.00,,CLR,0.00,0.00,VWS V14.01,2013-11-28 05:22:00,
2013-11-27 23:25:00,21.7,15.3,30.26,WNW,290,0.0,2.0,76,0.00,,CLR,0.00,0.00,VWS V14.01,2013-11-28 05:25:00,
2013-11-27 23:27:00,21.8,15.1,30.26,WNW,290,0.0,0.0,75,0.00,,CLR,0.00,0.00,VWS V14.01,2013-11-28 05:27:00,
2013-11-27 23:30:00,22.2,15.2,30.25,WNW,290,0.0,1.0,74,0.00,,CLR,0.00,0.00,VWS V14.01,2013-11-28 05:30:00,
2013-11-27 23:32:00,22.4,15.4,30.25,WNW,290,0.0,0.0,74,0.00,,CLR,0.00,0.00,VWS V14.01,2013-11-28 05:32:00,
2013-11-27 23:35:00,22.5,15.2,30.25,WNW,290,0.0,0.0,73,0.00,,CLR,0.00,0.00,VWS V14.01,2013-11-28 05:35:00,
2013-11-27 23:37:00,22.5,15.2,30.25,WNW,290,0.0,0.0,73,0.00,,CLR,0.00,0.00,VWS V14.01,2013-11-28 05:37:00,
2013-11-27 23:40:00,22.7,15.1,30.25,WNW,290,0.0,0.0,72,0.00,,CLR,0.00,0.00,VWS V14.01,2013-11-28 05:40:00,
2013-11-27 23:42:00,22.8,15.1,30.25,WNW,290,0.0,0.0,72,0.00,,CLR,0.00,0.00,VWS V14.01,2013-11-28 05:42:00,
2013-11-27 23:45:00,23.1,15.1,30.26,WNW,290,0.0,0.0,71,0.00,,CLR,0.00,0.00,VWS V14.01,2013-11-28 05:45:00,
2013-11-27 23:47:00,23.1,15.1,30.26,WNW,290,0.0,0.0,71,0.00,,CLR,0.00,0.00,VWS V14.01,2013-11-28 05:47:00,
2013-11-27 23:50:00,23.1,15.1,30.26,WNW,290,0.0,0.0,71,0.00,,CLR,0.00,0.00,VWS V14.01,2013-11-28 05:50:00,
2013-11-27 23:52:00,23.0,15.0,30.26,WNW,290,0.0,0.0,71,0.00,,CLR,0.00,0.00,VWS V14.01,2013-11-28 05:52:00,
2013-11-27 23:55:00,23.0,15.0,30.26,WNW,290,0.0,0.0,71,0.00,,CLR,0.00,0.00,VWS V14.01,2013-11-28 05:55:00,
2013-11-27 23:57:00,23.1,14.8,30.26,WNW,290,0.0,0.0,70,0.00,,CLR,0.00,0.00,VWS V14.01,2013-11-28 05:57:00,